PEGASUS DEB

基本信息
目录编号:
24985
目录名称:
PEGASUS DEB
国际标识:
1994-029ACT
轨道中心:
EARTH
物体状态:
在轨
发射日期:
1994-05-19 UTC
轨道信息
数据来源: 国际轨道数据
星历时间: 2026-09-11T20:53:29+0800
半长轴: 7373.862km
偏心率: 0.0600731
轨道倾角: 81.508°
近地点辐角: 55.593°
升交点赤经: 89.124°
平近点角: 310.052°
近地点: 552.754km
远地点: 1438.696km
周期: 105.027分钟
每日圈数: 13.710721
详细信息
发射场:
AFWTR
轨道高度:
LEO
数据来源:
AOE Integration Group
参考系:
TEME
时间系统:
UTC
历元类型:
SGP4
2D轨道图
3D轨道图
轨道高度分析图
轨道倾角分析图
轨道综合分析图
查看轨道综合分析图